Location: Betz
(49.1556°N, 2.9558°E)
Time: 14:53:26
(UTC+00:00)

Okean 1 Rocket - Pass Details

Date: 18 September 2019
Orbit: 608 x 633 km, 82.5° (Epoch: 18 October)

Event Time Altitude Azimuth Distance (km) Brightness Sun altitude
Rises 18:56:01 0° 181° (S) 2,855 6.3 -10.6°
Reaches altitude 10° 18:58:14 10° 179° (S) 1,957 5.5 -10.9°
Maximum altitude 19:02:32 69° 96° (E) 658 3.0 -11.6°
Drops below altitude 10° 19:06:53 10° 14° (NNE) 1,983 5.7 -12.3°
Sets 19:09:08 0° 12° (NNE) 2,897 6.6 -12.6°
